Location: ČR
(50.0000°N, 15.0000°E)
Time: 12:39:54
(UTC+00:00)

ISS - Pass Details

Date: 02 October 2021
Orbit: 417 x 423 km, 51.6° (Epoch: 16 October)

Event Time Altitude Azimuth Distance (km) Brightness Sun altitude
Rises 19:04:39 0° 282° (WNW) 2,365 1.4 -24.2°
Reaches altitude 10° 19:07:22 10° 259° (W) 1,499 -0.3 -24.6°
Enters shadow 19:08:55 15° 232° (SW) 1,236 -1.1 -24.8°
